Regional Weather Roundup
Issued by NWS Goodland, KS

Home | Current Version | Previous Version | Graphics & Text | Print | Product List | Glossary On
Versions: 1 2 3 4 5 6 7 8 9 10 11 12 13 14 15 16 17 18 19 20 21 22 23 24 25 26 27 28 29 30 31 32 33 34 35 36 37 38 39 40 41 42 43 44 45 46 47 48 49 50
000
ASUS43 KGLD 012208
RWRGLD

GOODLAND FORECAST AREA HOURLY WEATHER ROUNDUP
NATIONAL WEATHER SERVICE GOODLAND KS
300 PM MST SUN FEB 01 2015

...OFFICIAL OBSERVATIONS...

CITY           SKY/WX    TMP DP  RH WIND       PRES   REMARKS
GOODLAND KS    PTSUNNY   18   9  68 N23G33    30.21R WCI   0
HILL CITY KS   CLOUDY    18   7  62 N30G38    30.27R WCI  -1
IMPERIAL NEB   MOSUNNY   13   3  64 N25       30.26R WCI  -7
MCCOOK NEB     MOSUNNY   15   4  61 N22       30.28R WCI  -3
AKRON CO       SUNNY     22  13  68 N25G36    30.16S WCI   5
BURLINGTON CO  SUNNY     20  11  68 N21       30.17S WCI   4
LIMON CO       FLURRIES  21  15  78 N18       30.13S WCI   6
$$

...UNOFFICIAL OBSERVATIONS...

CITY           SKY/WX    TMP DP  RH WIND       PRES   REMARKS
COLBY KS       CLOUDY    18  10  73 NW24G33   30.24S WCI   0
GOVE KS          N/A     19  32 100 MISG        N/A
NORTON KS      MOSUNNY   16   5  62 NW25      30.26R WCI  -3
SHARON SPRINGS   N/A     22  13  68 N21G33      N/A  WCI   7
KIT CARSON CO    N/A     26  15  61 MISG        N/A
$$


USA.gov is the U.S. government's official web portal to all federal, state and local government web resources and services.